DELTA 1 R/B, 575

Orbit data source: Space-Track

DELTA 1 R/B, 575 is space debris in HEO originally from a launch on Tue, 07 May 1963 UTC launched from the Air Force Eastern Test Range (AFETR). Debris objects in space refer to the collection of defunct objects orbiting the Earth. Examples of debris include non-operational satellites, rocket bodies, and fragments generated from explosions, collisions, or faulty payload assembly.

Loading next visibility...
Identifier
575, 1963-013B
Orbit
HEO
Country
Flag of USUS
Related business
Manufacturer
ABL
Mission
Spacecraft
Bus & Motor
ALTAIR, Unknown motor
Mass
24 kg wet, 24 kg dry
Launch date (UTC)
1963-05-07 (63 years ago)
Launch vehicle
Unknown
Launch site
Air Force Eastern Test Range (AFETR)
Object type
Payload
Rocket body
Debris
Shape & HBR
CYL, 1.1 m
Radar Cross Section
Medium (>0.1 m² and <1 m²)

Expand to show TLE details & history
Last TLE update: 17 hours ago

TLE from 17 hours ago
0 DELTA 1 R/B
1 00575U 63013B   26265.20953017 -.00000141  00000-0 -21430-2 0  9998
2 00575  42.7568 182.8623 4002769 333.7403 151.2497  6.40290451482208
Epoch: 2026-09-22T05:01Z
TLE epoch observation values (Epoch: 2026-09-22T05:01:43.406Z)
Latitude
25.8265°
Longitude
-105.13265°
Altitude
10,460.097 km
Speed
3.85 km/s
True Right ascension
22h 05m 30s
True Declination
25° 46' 10"
Sunlit
Object was in daylight at epoch
Visualization orbit readout
Latitude
Unknown
Longitude
Unknown
Altitude
Unknown
Speed
Unknown
Apparent Right ascension
Unknown
Apparent Declination
Unknown
Sunlit
N/A
Visualization observer readout
Local Sidereal Time
15:23:56
Azimuth
Unknown
Elevation
Unknown
Doppler factor
Unknown
Orbital elements
Apogee altitude
10,777.854 km
Perigee altitude
969.584 km
Semi-major axis
12,251.856 km
Eccentricity
0.40028
Inclination
42.7568°
RAAN
182.8623°
Arg. of periapsis
333.7403°
True anomaly
166.39584°
Mean anomaly
151.2497°
Eccentric anomaly
159.341°
Mean motion
1.60044 °/min
Orbital period
224.94 mins
BSTAR
-0.002143
Loading maneuver chart data...
Computing Atmospheric mass density...
Loading historical data...
Loading historical data...
Loading historical data...
Loading historical data...
Loading historical data...
Loading historical data...
Loading historical data...
Other satellites on launch #13 in the year 1963 (1963-05-07 UTC)

Documentation

Showing up to 5 results
|